Location: ??????
(55.8891°N, 37.9845°E)
Time: 11:43:36
(UTC+00:00)

Daily predictions for brighter satellites

Satellite Brightness Start Highest point End
(mag) Time Altitude Azimuth Time Altitude Azimuth Time Altitude Azimuth
Cosmos 2369 Rocket 2.7 17:11:57 10° SW 17:17:37 69° NW 17:23:16 10° NNE
Cosmos 1354 Rocket 4.1 17:13:23 10° NNW 17:18:45 71° ENE 17:24:04 10° SE
NOSS 2-3 (E) 4.0 17:15:31 10° WSW 17:19:20 64° NNW 17:24:01 10° NE
Cosmos 2219 4.3 17:19:44 10° NNW 17:24:53 33° NE 17:29:58 10° E
ATLAS 5 CENTAUR R/B 1.3 17:23:02 10° SSW 17:26:18 44° SE 17:30:02 10° ENE
Terra 2.8 17:23:20 10° ESE 17:27:29 32° ENE 17:31:40 10° N
BlueWalker 3 3.7 17:26:29 10° S 17:28:33 14° SE 17:30:38 10° ESE
Cosmos 332 Rocket 4.3 17:25:01 10° NNW 17:29:45 49° NE 17:34:29 10° SE
Cosmos 2098 Rocket 2.9 17:26:45 10° S 17:31:16 88° W 17:34:58 10° N
NOSS 8 (F) 4.2 17:28:24 10° NW 17:31:21 82° NE 17:34:50 10° SE
Iridium 4 Rocket 4.4 17:26:36 10° SSE 17:31:45 38° E 17:37:07 10° NNE
CARTOSAT-1 4.0 17:29:07 10° S 17:33:22 64° WSW 17:37:38 10° NNW
Sich 1 Rocket 4.0 17:30:53 10° SSE 17:35:04 44° E 17:39:21 10° NNE
Okean 1 Rocket 4.0 17:31:34 10° SSE 17:35:27 30° E 17:39:22 10° NNE
NOSS 3-2 (A) 4.4 17:29:44 10° WNW 17:36:08 53° NNE 17:43:55 10° E
NOSS 2-2 (C) 3.7 17:33:11 10° WSW 17:36:16 51° NNW 17:39:39 10° NE
Cosmos 1821 Rocket 4.5 17:30:31 10° NNW 17:36:38 64° W 17:42:39 10° S
Cosmos 2263 Rocket 3.5 17:32:08 10° NNW 17:37:07 30° NNE 17:42:02 10° E
USA 245 4.3 17:33:02 10° SE 17:37:42 41° ENE 17:41:33 10° N
CZ-4B R/B 4.3 17:32:26 10° S 17:37:50 46° W 17:43:11 10° NNW
USA 267 3.3 17:31:24 10° ENE 17:37:56 64° SSE 17:44:27 10° SW
Cosmos 1455 4.1 17:35:23 10° SW 17:38:38 32° WNW 17:41:54 10° N
Okean-O 2.6 17:35:23 10° SSE 17:39:48 90° WSW 17:44:15 10° NNW
Nadezhda 3 Rocket 4.0 17:33:43 10° S 17:39:49 71° E 17:46:01 10° NNE
Ariane Rocket 3.7 17:36:24 10° SE 17:41:04 40° ENE 17:45:46 10° N
Cosmos 1605 Rocket 4.4 17:37:06 10° N 17:43:22 52° ENE 17:49:33 10° SSE
CZ-4C R/B 3.3 17:41:09 10° NNE 17:44:29 43° E 17:47:43 10° S
Cosmos 990 Rocket 4.3 17:42:01 10° NNW 17:47:09 56° NE 17:51:50 12° SE
Cosmos 1437 Rocket 3.8 17:44:03 10° N 17:47:34 31° ENE 17:50:37 13° SE
Genesis I 3.9 17:46:10 10° WNW 17:49:37 42° SW 17:53:04 10° SSE
Aureole 1 Rocket 3.3 17:48:07 10° NNW 17:50:53 31° NE 17:53:03 14° ESE
USA 186 4.3 17:50:57 10° SW 17:53:13 19° W 17:55:29 10° NW
Okean O Rocket 2.9 17:50:47 10° SSW 17:54:53 39° W 17:59:03 10° NNW
CZ-4 R/B 4.1 17:59:37 10° SW 18:02:02 16° W 18:04:26 10° NW
CENTAUR R/B 3.4 17:54:26 10° NW 18:02:02 69° NNE 18:10:31 12° ESE
Cosmos 1536 Rocket 4.0 17:58:37 10° NNW 18:03:00 64° W 18:07:23 10° S
NOSS 3-1 (A) 3.2 18:01:15 10° SSW 18:06:17 59° SE 18:12:29 10° NE
IRS-1C Rocket 4.2 18:02:12 10° SSE 18:07:30 83° WSW 18:12:49 10° NNW
Resurs 01 Rocket 3.5 18:05:46 10° SSW 18:09:40 30° W 18:13:36 10° NNW
MOS 1 Rocket 4.0 18:07:00 16° ESE 18:09:59 35° ENE 18:14:03 10° N
Cosmos 2058 3.8 18:08:36 10° N 18:12:17 33° ENE 18:14:40 18° ESE
Cosmos 1934 Rocket 4.2 18:08:09 10° NNW 18:14:17 73° W 18:20:28 10° S
USA 229 DEB 4.1 18:09:55 10° S 18:15:29 36° ESE 18:21:34 10° ENE
USA 229 4.1 18:10:01 10° S 18:15:35 35° ESE 18:21:39 10° ENE
ERS-1 Rocket 2.9 18:11:30 12° SSE 18:16:05 82° ENE 18:21:09 10° NNW
SPOT 3 Rocket 3.6 18:14:33 15° SSE 18:18:48 66° ENE 18:23:58 10° NNW
USA 281 4.1 18:13:48 10° S 18:20:05 46° WSW 18:26:23 10° NW
Cosmos 1339 Rocket 4.4 18:14:05 10° S 18:20:13 84° E 18:26:20 10° NNE
Cosmos 2227 Rocket 2.2 18:20:34 10° NW 18:26:18 89° ENE 18:30:32 19° SSE
NOSS 3-1 (C) 3.5 18:21:31 10° WSW 18:26:49 75° NNW 18:33:25 10° NE
Cosmos 2151 Rocket 4.0 18:23:03 10° SSW 18:27:26 65° WNW 18:31:53 10° N
Cosmos 2344 4.3 18:20:53 10° W 18:28:01 56° NNW 18:36:11 10° ENE
Landsat 5 4.5 18:25:26 10° NNE 18:29:09 28° E 18:30:43 22° SE
ATLAS CENTAUR R/B 1.1 18:28:59 10° NW 18:32:44 89° SSW 18:34:52 25° SE
Cosmos 1980 Rocket 3.6 18:31:51 17° ESE 18:32:46 17° E 18:36:19 10° ENE
Cosmos 292 Rocket 3.9 18:32:30 10° NNW 18:37:14 61° ENE 18:40:04 23° SE
Cosmos 1892 Rocket 3.5 18:33:40 10° NNW 18:38:02 88° WSW 18:41:02 20° S
Cosmos 1937 Rocket 3.8 18:34:57 10° NNW 18:40:13 57° NE 18:43:32 22° SE
COSMOS 2455 3.3 18:34:32 10° NW 18:40:26 55° WSW 18:44:51 18° SSE
ATLAS 3B R/B 2.9 18:33:17 10° SW 18:40:34 89° SE 18:48:21 10° NE
Cosmos 1697 Rocket 3.3 18:37:21 17° SSE 18:41:06 35° ESE 18:46:13 10° NE
SL-4 R/B 2.8 18:39:14 10° W 18:42:18 27° SSW 18:43:07 24° S
H-2A R/B 4.1 18:42:12 15° E 18:43:49 19° ENE 18:46:33 10° N
Okean 2 Rocket 4.2 18:45:17 10° SW 18:49:37 46° WNW 18:53:58 10° N
CZ-4C R/B 3.1 18:45:06 10° NW 18:51:50 67° SW 18:57:31 22° SSE
NOSS 3-2 (C) 4.3 18:45:43 10° NW 18:52:22 61° NNE 18:59:43 13° ESE
SPOT 5 4.1 18:47:28 10° SSW 18:52:29 41° W 18:57:26 10° NNW
Cosmos 1898 Rocket 3.5 18:47:29 10° NNW 18:52:47 85° ENE 18:55:50 26° SSE
Cosmos 2297 Rocket 3.2 18:49:11 10° NW 18:54:25 39° WSW 18:58:47 14° S
MetOp-A 3.2 18:52:41 30° SSE 18:54:26 76° ENE 18:58:16 10° NNW
Cosmos 1602 Rocket 4.4 18:51:22 10° N 18:55:25 36° ENE 18:57:08 26° ESE
Cosmos 1758 Rocket 4.3 18:51:51 10° N 18:56:04 40° ENE 18:57:55 27° ESE
Spot 2 Rocket 3.9 18:56:17 17° S 19:00:04 60° WSW 19:05:05 10° NNW
Cosmos 405 Rocket 2.5 18:59:06 24° S 19:01:14 81° E 19:04:58 10° NNE
USA 81 4.1 18:58:09 24° SSE 19:01:19 62° E 19:06:32 10° NNE
Cosmos 2228 4.1 19:01:42 25° ESE 19:02:23 26° E 19:05:53 10° NNE
Cosmos 1725 Rocket 4.5 18:56:29 10° N 19:02:27 47° ENE 19:05:48 25° SE
Cosmos 1459 Rocket 4.0 18:58:00 10° N 19:04:03 66° ENE 19:07:34 26° SSE
ARIANE 5 R/B 3.5 19:02:21 26° ESE 19:04:17 39° ENE 19:08:27 10° N
Cosmos 1656 3.6 18:58:56 10° SW 19:04:31 87° WNW 19:10:03 10° NE
Terra 2.5 19:01:25 16° S 19:04:57 49° W 19:09:34 10° NNW
BlueWalker 3 2.3 19:02:28 10° SW 19:06:03 39° SSE 19:06:07 39° SSE
Spot 1 4.1 19:03:30 10° NNE 19:08:14 70° ESE 19:10:50 25° S
Cosmos 2219 3.2 19:03:54 10° NW 19:09:35 78° WSW 19:12:38 28° SSE
ATLAS 5 CENTAUR R/B 2.4 19:06:45 10° W 19:10:13 44° NNW 19:14:19 10° NE
Cosmos 1455 Rocket 3.0 19:09:45 20° SSW 19:12:47 84° WNW 19:17:12 10° N
Okean 1 Rocket 4.3 19:08:55 10° SW 19:13:10 42° WNW 19:17:28 10° N
Ariane Rocket 3.9 19:16:22 16° SSW 19:20:01 42° W 19:24:50 10° NNW
Cosmos 858 Rocket 4.5 19:14:57 10° NNW 19:20:17 85° ENE 19:22:42 33° SSE
USA 267 3.3 19:14:36 10° ENE 19:21:11 85° N 19:27:46 10° W
Cosmos 1666 4.3 19:18:38 10° NNE 19:21:19 20° ENE 19:21:52 19° ENE
Cosmos 2263 Rocket 2.1 19:16:03 10° NW 19:21:44 88° WSW 19:24:25 32° SSE
Cosmos 1763 Rocket 3.4 19:17:53 11° SSW 19:22:52 88° ESE 19:28:04 10° NNE
ALOS 2 4.3 19:21:12 18° E 19:22:59 24° ENE 19:26:28 10° N
Cosmos 1437 Rocket 4.1 19:19:46 10° NNW 19:23:20 34° W 19:25:29 19° SSW
NOSS 3-2 (A) 3.9 19:20:35 10° NW 19:27:36 83° SW 19:32:37 27° SE
Cosmos 2082 3.7 19:22:19 10° NW 19:28:02 83° WSW 19:30:37 34° SSE
Cosmos 2173 Rocket 4.0 19:22:21 10° NNW 19:28:47 86° W 19:32:24 28° S
Cosmos 44 3.4 19:24:08 10° SW 19:29:33 84° SE 19:34:50 10° NE
Cosmos 1862 3.9 19:25:53 10° N 19:29:38 42° ENE 19:30:23 37° ESE
Aureole 1 Rocket 4.1 19:31:36 10° NW 19:33:55 20° WSW 19:34:29 19° WSW
Cosmos 1544 2.5 19:31:02 10° N 19:33:47 70° NE 19:33:47 70° NE
Meteor 2-3 Rocket 3.7 19:29:00 10° NNW 19:34:43 89° E 19:37:24 34° SSE
Cosmos 1271 Rocket 3.8 19:36:01 10° N 19:39:23 30° ENE 19:39:59 28° E
Cosmos 1500 3.8 19:39:10 10° N 19:42:28 36° ENE 19:42:39 36° E
Cosmos 540 Rocket 3.4 19:39:04 19° SSW 19:42:48 87° WNW 19:47:58 10° NNE
Meteor 2-15 4.4 19:36:45 10° NNW 19:42:55 83° W 19:45:56 32° S
Meteor 2-15 Rocket 4.4 19:40:00 10° NNW 19:46:11 83° ENE 19:48:58 35° SSE
Intercosmos 25 4.2 19:42:33 10° NNW 19:47:39 51° W 19:49:00 34° SSW
MOS 1 Rocket 4.2 19:46:11 24° SW 19:48:09 36° W 19:52:16 10° NNW
Cosmos 1864 Rocket 4.4 19:41:59 10° NNW 19:48:13 90° WSW 19:51:03 34° S
Cosmos 2058 4.2 19:45:15 10° NNW 19:48:54 33° W 19:50:33 23° SW
Cosmos 1606 2.4 19:49:35 69° SE 19:49:46 71° E 19:53:24 10° NNE
Cosmos 1626 Rocket 4.1 19:46:09 10° NNW 19:50:27 52° W 19:52:02 34° SSW
Cosmos 1802 Rocket 4.0 19:44:46 10° NNW 19:51:04 80° W 19:54:09 33° S
PSLV R/B 4.3 19:47:48 10° NNE 19:51:43 44° E 19:51:51 44° ESE
USA 238 DEB 4.1 19:45:14 10° NW 19:52:17 69° NNE 19:58:10 18° ESE
USA 238 4.1 19:45:20 10° NW 19:52:23 69° NNE 19:58:18 18° ESE
Spot 4 4.2 19:51:15 37° ESE 19:52:46 53° ENE 19:57:26 10° N
CENTAUR R/B 3.4 19:45:08 10° NW 19:52:59 59° SW 19:57:39 30° SSE
Cosmos 468 Rocket 4.1 19:51:31 18° SW 19:55:22 77° WNW 20:00:39 10° NNE
Cosmos 1844 4.4 19:50:58 10° NNW 19:56:34 48° NE 19:59:45 24° ESE
NOSS 3-1 (A) 4.1 19:51:51 10° W 19:57:16 55° NNW 20:04:01 10° ENE
Cosmos 2016 Rocket 3.9 19:52:25 10° NNW 19:58:34 83° W 20:01:17 36° S
SL-16 R/B 3.7 19:59:19 20° E 19:59:19 20° E 20:03:20 10° NE
Cosmos 1953 Rocket 4.0 19:59:55 10° N 20:04:10 49° ENE 20:04:56 43° ESE
Landsat 5 4.5 20:00:25 10° N 20:04:31 44° WNW 20:06:58 21° SW
Uosat 12 SS-18 rocket 4.0 20:00:32 10° NW 20:05:17 81° SW 20:06:08 57° SSE
Cosmos 841 Rocket 3.3 20:03:36 42° S 20:05:19 72° ESE 20:10:27 10° NNE
USA 229 DEB 3.7 19:59:31 10° WSW 20:05:53 81° NW 20:13:01 10° NE
USA 229 3.7 19:59:37 10° WSW 20:05:59 81° NW 20:13:06 10° NE
Cosmos 1844 Rocket 3.1 20:00:45 10° NNW 20:06:18 57° NE 20:08:52 31° ESE
Cosmos 1125 Rocket 4.0 20:04:10 10° NNW 20:09:18 51° NE 20:11:22 32° ESE
Spot 2 3.9 20:09:01 60° ESE 20:09:34 70° ENE 20:13:39 10° NNW
Cosmos 2227 Rocket 3.9 20:05:26 10° NW 20:09:40 22° WSW 20:12:21 16° SW
Cosmos 1869 3.4 20:09:00 51° SW 20:09:43 65° WNW 20:13:34 10° N
ATLAS CENTAUR R/B 3.2 20:07:32 10° WNW 20:09:58 17° WSW 20:09:58 17° WSW
MINOTAUR 4 R/B 4.1 20:10:17 10° N 20:13:03 60° NW 20:13:03 60° NW
Cosmos 1544 Rocket 4.1 20:12:25 33° SW 20:14:04 55° WNW 20:18:20 10° N
Cosmos 1980 Rocket 2.1 20:13:32 37° SSW 20:15:52 75° ESE 20:21:32 10° NE
H-2A R/B 2.3 20:18:14 61° SW 20:18:28 63° WSW 20:22:15 10° NNW
Cosmos 2278 4.4 20:20:58 35° ESE 20:21:25 35° ESE 20:26:31 10° NE
GENESIS II 4.2 20:19:51 10° NW 20:23:08 61° W 20:23:08 61° W
Cosmos 2123 Rocket 4.0 20:21:07 33° SSW 20:24:13 80° WNW 20:30:36 10° N
Cosmos 1697 Rocket 3.2 20:19:15 10° SW 20:24:51 61° NW 20:30:30 10° NNE
Cosmos 1812 4.4 20:29:18 21° ENE 20:29:18 21° ENE 20:31:31 10° NE
Cosmos 2151 2.9 20:25:35 10° N 20:29:49 73° ENE 20:30:13 67° ESE
Meteor 1-27 4.1 20:28:24 45° S 20:30:10 82° ESE 20:35:46 10° NNE
CZ-2C R/B 3.8 20:26:28 10° NNE 20:31:14 77° WNW 20:32:37 46° SSW
ATLAS 3B R/B 3.8 20:24:48 10° W 20:32:04 52° NNW 20:39:41 10° ENE
Cosmos 2228 3.8 20:38:16 34° WSW 20:39:31 44° WNW 20:43:34 10° N
CZ-4C R/B 4.4 20:34:09 10° WNW 20:39:40 24° WSW 20:42:37 19° SW
ARIANE 5 R/B 3.6 20:39:49 33° WSW 20:40:43 36° W 20:44:54 10° NNW
NOSS 3-2 (C) 4.0 20:36:34 10° NW 20:43:37 66° SW 20:47:07 37° SSE
Cosmos 2344 4.3 20:36:21 10° WNW 20:43:45 58° NNE 20:53:08 10° E
BlueWalker 3 4.4 20:40:13 10° W 20:40:37 13° WSW 20:40:37 13° WSW
Cosmos 2227 4.4 20:38:49 10° NW 20:44:27 60° WSW 20:45:50 47° SSW
Cosmos 2369 3.6 20:45:58 37° SW 20:48:20 86° NW 20:54:03 10° NE
Cosmos 2233 Rocket 4.3 20:42:27 10° NNW 20:48:29 58° W 20:50:44 37° SSW
Cosmos 1076 Rocket 3.3 20:44:49 10° N 20:49:09 81° ENE 20:49:28 74° SE
Cosmos 2150 Rocket 4.3 20:45:34 10° NNW 20:50:42 61° ENE 20:52:20 41° ESE
Cosmos 1825 Rocket 4.2 20:48:14 10° NNW 20:52:25 44° W 20:52:59 41° WSW
Cosmos 1606 Rocket 3.5 20:53:31 64° SW 20:54:02 74° WNW 20:58:23 10° N
H-2A R/B 2.8 20:50:12 10° NNE 20:53:58 37° E 20:53:58 37° E
Cosmos 2298 Rocket 4.2 20:49:09 10° NNW 20:54:28 66° ENE 20:56:09 42° ESE
ATLAS 5 CENTAUR R/B 3.4 20:51:27 10° WNW 20:54:59 30° N 20:59:10 10° ENE
Cosmos 1666 3.3 20:52:37 10° NNW 20:55:38 43° WNW 20:55:38 43° WNW
Lacrosse 4 Rocket 1.7 20:57:46 51° E 20:57:46 51° E 21:01:02 10° NE
Cosmos 1464 Rocket 4.1 20:51:37 10° N 20:58:00 70° ENE 21:00:18 41° SE
ALOS 2 2.6 20:58:36 61° SW 20:58:59 64° WSW 21:03:22 10° NNW
Cosmos 1447 Rocket 4.4 20:57:57 46° S 20:59:59 86° E 21:06:11 10° NNE
SL-19 R/B 4.3 20:58:14 10° NNE 21:03:53 85° ESE 21:05:43 47° SSW
USA 267 3.2 20:57:40 10° E 21:04:15 88° N 21:10:51 10° WNW
Cosmos 2263 Rocket 3.8 21:00:51 10° NW 21:04:56 21° WSW 21:06:06 19° WSW
Cosmos 1814 Rocket 3.8 21:04:55 57° SSW 21:06:01 84° ESE 21:11:12 10° NNE
Cosmos 2360 Rocket 3.1 21:09:23 31° ESE 21:09:51 31° ESE 21:14:46 10° NE
Cosmos-2242 4.0 21:09:57 33° E 21:09:58 33° E 21:13:47 10° NNE
Helios 1A Rocket 4.3 21:09:10 27° E 21:10:03 30° ENE 21:13:32 10° N
Cosmos 2058 Rocket 2.9 21:10:16 72° ESE 21:10:27 73° E 21:14:50 10° NNE
Aureole 3 Rocket 4.0 21:06:38 10° N 21:11:01 34° ENE 21:11:48 31° E
Cosmos 1891 Rocket 4.5 21:06:29 10° NNW 21:12:40 77° W 21:14:37 46° S
Cosmos 1513 Rocket 4.4 21:07:02 10° NNW 21:13:09 81° W 21:15:01 48° S
Cosmos 1271 Rocket 3.9 21:11:25 10° NNW 21:14:33 32° W 21:14:33 32° W
Meteor 1-20 Rocket 4.2 21:09:50 10° NNW 21:15:30 85° ENE 21:17:02 51° SSE
Cosmos 1867 4.0 21:10:06 10° NW 21:15:34 61° NNE 21:19:19 20° ESE
Cosmos 1461 4.1 21:12:16 10° NW 21:15:57 37° NNE 21:17:59 21° E
Cosmos 2084 Rocket 3.5 21:14:03 10° NW 21:17:19 56° WNW 21:17:19 56° WNW
Cosmos 2034 Rocket 4.1 21:13:54 10° N 21:20:06 69° ENE 21:22:16 42° SE
Cosmos 2278 Rocket 3.7 21:15:16 10° NNW 21:20:26 33° NE 21:25:33 10° E
Cosmos 2333 Rocket 3.0 21:21:48 32° ESE 21:22:24 33° ESE 21:27:25 10° NE
Cosmos 2322 Rocket 2.5 21:22:13 44° SE 21:22:57 47° ESE 21:28:19 10° NE
Cosmos 1570 Rocket 4.1 21:22:21 53° SE 21:23:02 58° ESE 21:28:10 10° NNE
Cosmos 2219 Rocket 3.6 21:24:01 22° ESE 21:24:41 23° ESE 21:28:56 10° NE
Lacrosse 5 3.0 21:26:46 28° ESE 21:26:46 28° ESE 21:30:02 10° ENE
Meteor 1-25 Rocket 4.1 21:21:38 10° NNW 21:27:19 87° ENE 21:28:46 52° SSE
SL-24 R/B 4.3 21:22:23 10° NNE 21:27:30 66° ESE 21:28:07 59° SE
Cosmos 1726 Rocket 4.3 21:33:51 38° W 21:34:36 42° WNW 21:38:44 10° N
Cosmos 2221 4.3 21:36:52 20° E 21:37:30 21° E 21:40:43 10° NE
Cosmos 1809 Rocket 4.4 21:36:56 46° SSW 21:38:56 84° WNW 21:45:11 10° NNE
Cosmos 1844 4.1 21:35:15 10° NW 21:40:46 48° WSW 21:41:36 44° SW
Cosmos 1634 Rocket 4.4 21:34:47 10° N 21:41:02 57° ENE 21:43:58 31° SE
Geosat 3.9 21:40:26 52° SSE 21:41:42 89° WSW 21:46:46 10° NW
Cosmos 1238 Rocket 3.3 21:42:25 44° WNW 21:42:25 44° WNW 21:45:52 10° N
SL-16 R/B 2.1 21:41:08 51° SSW 21:42:40 84° ESE 21:48:23 10° NE
USA 238 DEB 4.1 21:36:17 10° NW 21:43:16 53° SW 21:45:34 40° S
USA 238 4.1 21:36:23 10° NW 21:43:23 53° SW 21:45:42 40° S
Cosmos 1782 3.0 21:49:03 57° E 21:49:03 57° E 21:52:38 10° NNE
Cosmos 1844 Rocket 3.3 21:44:55 10° NW 21:50:02 37° WSW 21:50:30 36° WSW
Cosmos 1125 Rocket 4.2 21:46:27 10° NW 21:51:13 36° WSW 21:51:35 35° WSW
Resurs 1-4 Rocket 4.4 21:53:42 10° NE 21:56:32 14° E 21:59:20 10° ESE
Cosmos 1378 4.5 21:57:02 28° ENE 21:57:02 28° ENE 21:59:33 10° NNE
Cosmos 1943 Rocket 3.7 21:53:05 10° NNW 21:58:18 36° NE 22:03:30 10° ESE
NOSS 2-1 (E) 3.9 22:00:22 39° NE 22:00:22 39° NE 22:02:31 10° NE
Cosmos 1980 Rocket 3.6 21:55:16 10° WSW 22:00:23 34° NW 22:05:33 10° NNE
PSLV R/B 3.9 21:55:56 10° N 22:00:32 63° WNW 22:01:26 51° WSW
NOSS 2-1 (C) 3.8 22:01:53 43° NNE 22:01:53 43° NNE 22:04:09 10° NE
Timation 2 Rocket 4.4 21:55:44 10° NW 22:02:02 47° WSW 22:03:23 41° SW
NOSS 2-2 (E) 3.6 21:58:16 10° NW 22:02:09 77° NE 22:05:29 21° ESE
Cosmos 158 Rocket 3.8 22:01:42 59° SSE 22:02:28 70° ESE 22:07:29 10° NNE
Cosmos 2084 3.8 22:01:57 42° WNW 22:02:53 54° NNW 22:06:39 10° NE
Cosmos 1812 3.5 22:03:29 39° WNW 22:03:29 39° WNW 22:06:48 10° N
Cosmos 2278 4.1 22:02:49 32° WSW 22:05:20 60° NW 22:10:59 10° NNE
Meteor 2-2 Rocket 4.3 22:06:08 47° S 22:07:55 79° ESE 22:13:56 10° NNE
Cosmos 1816 Rocket 4.4 22:06:57 45° SSW 22:08:58 85° WNW 22:15:10 10° N
USA 215 4.0 22:03:33 10° ENE 22:09:17 31° SE 22:10:14 30° SSE
Cosmos 489 Rocket 4.4 22:03:33 10° NNW 22:09:53 80° WSW 22:12:16 40° SSE
NOSS 3-1 (C) 4.5 22:04:12 10° WNW 22:10:26 54° NNE 22:18:10 10° E
Cosmos 1933 3.1 22:12:30 79° ESE 22:12:34 80° E 22:16:32 10° NNE
Cosmos 1766 Rocket 3.7 22:09:05 10° N 22:13:24 64° ENE 22:14:15 51° SE
CZ-2C R/B 4.1 22:13:19 10° ESE 22:18:07 34° ENE 22:22:51 10° N
Cosmos 1743 3.0 22:15:08 10° N 22:18:47 53° ENE 22:19:05 51° E
SL-16 R/B 4.1 22:14:42 10° ESE 22:20:05 32° NE 22:25:31 10° N
Cosmos 1900 4.4 22:15:11 10° NW 22:20:10 53° SW 22:20:26 53° SW
NOSS 2-2 (D) 3.6 22:16:33 10° NW 22:20:24 78° NE 22:25:40 10° ESE
NOSS 2-3 (C) 4.3 22:16:09 10° NW 22:21:16 85° NE 22:28:18 10° SE
Meteor 1-5 Rocket 4.3 22:15:47 10° NNW 22:21:34 71° W 22:23:22 45° SSW
Cosmos 2208 Rocket 4.1 22:21:10 44° SW 22:22:52 73° WNW 22:28:21 10° NNE
Cosmos 1726 3.8 22:20:28 10° NNE 22:23:03 22° ENE 22:23:57 19° E
ATLAS 3B R/B 3.9 22:16:48 10° WNW 22:24:13 50° NNE 22:31:50 10° E
Cosmos 1515 3.5 22:24:45 78° N 22:24:45 78° N 22:28:06 10° NNE
Cosmos 2279 Rocket 4.1 22:18:16 10° N 22:24:33 74° ENE 22:27:36 32° SSE
NOSS 2-3 (D) 4.2 22:21:15 10° NW 22:26:20 86° NE 22:33:20 10° SE
NOSS 3-4 (A) 3.4 22:25:04 45° S 22:26:29 57° SE 22:32:33 10° NE
NOSS 3-4 (C) 3.4 22:25:07 45° S 22:26:31 57° SE 22:32:36 10° NE
NOSS 2-1 (D) 3.6 22:29:54 43° NNW 22:29:54 43° NNW 22:32:51 10° NE
H-2A R/B 3.1 22:26:03 10° N 22:29:51 35° WNW 22:30:48 31° W
ADEOS II 4.3 22:28:07 10° NE 22:31:33 17° E 22:34:58 10° SE
Cosmos 44 Rocket 3.7 22:32:11 46° SSE 22:33:09 53° SE 22:38:09 10° NE
Meteor 1-26 Rocket 4.3 22:31:16 42° S 22:33:17 74° E 22:39:12 10° NNE
Lacrosse 4 Rocket 2.9 22:33:41 20° W 22:35:40 31° NNW 22:39:16 10° NNE
Cosmos 2237 Rocket 4.2 22:34:53 13° SE 22:37:40 18° E 22:41:25 10° ENE
ATLAS 5 CENTAUR R/B 2.7 22:35:30 10° NW 22:39:41 49° NNE 22:44:51 10° ESE
COSMOS 2428 3.5 22:39:20 30° SSE 22:41:16 39° ESE 22:46:32 10° NE
Nimbus 7 Rocket 4.3 22:36:39 10° NNE 22:42:34 90° NW 22:44:50 40° SSW
Tsikada Rocket 3.9 22:40:53 40° SSW 22:43:16 76° WNW 22:49:28 10° N
Helios 1A Rocket 3.5 22:44:37 39° W 22:44:37 39° W 22:48:09 10° NNW
GEOS 3 Rocket 3.5 22:40:54 17° SE 22:45:01 77° SW 22:50:21 10° NW
Cosmos 773 Rocket 3.9 22:45:07 46° SSW 22:46:46 88° WNW 22:52:04 10° NNE
Cosmos-2242 3.9 22:46:33 32° W 22:47:18 35° WNW 22:51:12 10° N
USA 267 3.2 22:41:08 10° SE 22:47:35 58° SSW 22:54:03 10° WNW
Meteor 1-14 Rocket 4.1 22:42:10 10° NNW 22:47:45 90° WSW 22:50:12 35° SSE
Cosmos 1812 Rocket 4.1 22:48:04 41° WSW 22:48:57 47° WNW 22:53:18 10° N
Cosmos 2322 4.1 22:50:35 36° S 22:52:38 55° ESE 22:58:14 10° NE
NOSS 2-3 (E) 4.3 22:47:46 10° NW 22:52:59 71° SW 23:00:08 10° SE
Cosmos 2360 Rocket 2.4 22:51:06 34° WSW 22:53:32 66° NW 22:59:11 10° NNE
Cosmos 1461 3.2 22:50:35 10° NW 22:53:33 43° W 22:53:33 43° W
IRIDIUM 103 4.4 22:50:01 10° N 22:55:16 72° E 22:57:45 32° SSE
Okean 3 Rocket 3.5 22:51:01 10° NNW 22:55:36 88° WSW 22:56:56 46° S
Cosmos 2333 4.1 22:54:04 39° SW 22:56:14 81° NW 23:01:54 10° NE
Aureole 3 Rocket 4.1 22:54:13 10° NNW 22:58:05 27° W 22:58:11 27° W
Cosmos 2344 3.9 22:50:45 10° NW 22:58:43 75° SW 23:09:31 10° SE
Cosmos 1867 3.9 22:53:54 10° NW 22:59:05 43° SW 22:59:55 41° SSW
Cosmos 783 Rocket 4.4 22:58:25 43° SSW 23:00:11 84° ESE 23:05:26 10° NNE
RESURS DK-1 3.5 23:01:49 28° SE 23:02:38 30° ESE 23:06:14 10° NE
H-2A R/B 4.0 22:58:57 10° NNE 23:02:56 49° E 23:04:08 36° SSE
Cosmos 2278 Rocket 2.1 22:59:22 10° NW 23:05:05 78° WSW 23:09:02 21° SSE
Cosmos 2333 Rocket 2.4 23:03:47 32° WSW 23:06:24 64° NW 23:12:03 10° NNE
Cosmos 2322 Rocket 2.9 23:03:59 24° WSW 23:07:03 48° NW 23:12:30 10° NNE
NOSS 2-2 (C) 3.6 23:03:57 10° WNW 23:07:56 61° SW 23:13:24 10° SE
Cosmos 2219 Rocket 2.1 23:05:42 38° SW 23:07:59 86° WNW 23:13:38 10° NE
Lacrosse 5 1.8 23:05:56 36° WSW 23:08:04 80° SSE 23:13:13 10° ENE
CZ-2D R/B 2.9 23:06:50 10° NNE 23:11:59 45° E 23:15:11 22° SSE
BREEZE-M DEB (TANK) 3.8 23:13:45 31° SSE 23:13:45 31° SSE 23:18:33 10° E
Cosmos 192 4.2 23:08:32 10° NNW 23:13:27 81° WSW 23:16:12 26° SSE
IRIDIUM 106 4.2 23:08:19 10° N 23:13:36 85° W 23:16:01 33° S
Cosmos 2221 2.7 23:13:29 45° SW 23:14:29 58° WNW 23:18:44 10° N
Cosmos 1408 Rocket 3.4 23:11:38 10° NNW 23:15:59 87° ENE 23:17:46 35° SSE
Cosmos 2056 Rocket 4.3 23:11:50 10° NNW 23:17:08 54° NE 23:22:27 10° SE
Meteor 1-11 Rocket 3.7 23:13:08 10° NNW 23:18:46 85° ENE 23:22:33 21° SSE
Cosmos 1842 Rocket 3.5 23:21:55 40° S 23:23:31 86° E 23:28:01 10° NNE
Cosmos 972 Rocket 4.0 23:24:39 35° SW 23:26:53 75° WNW 23:31:53 10° NNE
CZ-2C R/B 4.1 23:22:29 10° NNE 23:27:21 40° E 23:31:22 16° SSE
SL-16 R/B 3.6 23:22:57 13° W 23:27:25 32° NW 23:32:30 10° NNE
MOZ.5/SAFIR/RUBIN 5/SL-8 4.3 23:27:03 35° SW 23:28:07 40° W 23:32:37 10° NNW
Cosmos 1624 Rocket 4.5 23:23:06 10° NNW 23:28:20 61° ENE 23:33:29 10° SE
Cosmos 1733 3.7 23:25:05 10° N 23:28:38 52° ENE 23:30:50 21° SE
Cosmos 1378 4.2 23:30:16 26° WNW 23:30:33 27° WNW 23:33:29 10° N
Cosmos 1500 Rocket 3.5 23:30:40 10° NNW 23:35:09 83° W 23:37:28 28° S
Cosmos 1805 Rocket 3.5 23:31:25 10° NNW 23:35:47 85° ENE 23:38:22 24° SSE
IDEFIX/ARIANE 42P 2.6 23:31:42 10° NNE 23:36:56 81° ESE 23:39:49 27° S
Resurs 1-4 Rocket 2.3 23:32:00 10° NNE 23:37:20 70° ESE 23:40:31 24° S
Sich 1 2.9 23:34:41 10° NNW 23:38:57 90° NNE 23:41:25 25° S
NOSS 3-1 (A) 4.2 23:34:31 10° NW 23:41:06 69° NNE 23:49:20 10° ESE
Cosmos 1536 2.8 23:37:38 10° NNW 23:41:28 58° W 23:42:36 39° SSW
Cosmos 1943 Rocket 2.1 23:36:50 10° NW 23:42:30 71° WSW 23:48:09 10° SSE
ALOS 3.7 23:42:09 10° NNE 23:46:21 33° E 23:50:31 10° SSE
NOSS 0 Rocket 4.1 23:43:20 24° SSW 23:47:02 64° ESE 23:53:09 10° NE
Okean 1 3.3 23:48:49 29° S 23:50:36 71° E 23:54:25 10° NNE
Gbstr 26 Del rocket 3.3 23:49:29 33° SSW 23:50:41 42° S 23:54:23 10° E
USA 215 3.3 23:46:31 10° ENE 23:53:04 69° SSE 23:57:34 22° SW
Cosmos 1743 4.4 23:50:59 10° NW 23:53:28 18° W 23:53:28 18° W
COBE Rocket 3.7 23:50:16 10° NNE 23:54:58 89° ESE 23:57:41 25° SSW
Cosmos 1726 2.5 23:53:40 10° NNW 23:56:36 32° W 23:56:41 32° W
